CAPE
nan nan nan nan nan nan nan nan nan nan nan nan nan nan nan nan nan nan nan nan nan nan nan nan nan nan nan nan nan nan nan nan 2 2 5 6 7 7 6 5 5 4 4 4 4 3 3 3 3 2 2 1 1 1 2 4 4 5 5 5 5 5 5 4 4 4 4 3 3 3 4 5 7 7 11 17 23 23 35 41 41 56 75 86 86 87
nan nan nan nan nan nan nan nan nan nan nan nan nan nan nan nan nan nan nan nan nan nan nan nan nan nan nan nan nan nan nan nan nan nan 2 5 6 6 6 6 6 5 5 4 4 3 3 3 3 2 1 1 0 0 0 1 1 2 2 3 3 3 2 2 2 2 1 1 0 0 0 2 7 7 11 19 25 25 35 42 42 56 83 93 93 88
nan nan nan nan nan nan nan nan nan nan nan nan nan nan nan nan nan nan nan nan nan nan nan nan nan nan nan nan nan nan nan nan nan nan 0 3 4 4 5 6 6 5 5 4 4 3 3 3 3 2 1 1 0 0 0 0 0 0 1 1 1 1 1 0 0 0 0 nan nan nan nan 0 4 4 9 16 23 23 32 41 41 57 85 98 98 88
nan nan nan nan nan nan nan nan nan nan nan nan nan nan nan nan nan nan nan nan nan nan nan nan nan nan nan nan nan nan nan nan nan nan nan 0 3 3 4 5 5 5 4 3 3 3 2 2 2 2 1 1 0 0 0 0 0 0 0 0 0 0 nan nan nan nan nan nan nan nan nan nan 1 1 3 11 19 19 28 38 38 58 79 87 87 84
nan nan nan nan nan nan nan nan nan nan nan nan nan nan nan nan nan nan nan nan nan nan nan nan nan nan nan nan nan nan nan nan nan nan nan nan 1 1 2 3 3 3 3 2 2 2 2 2 2 2 1 1 1 1 1 0 0 0 0 nan nan nan nan nan nan nan nan nan nan nan nan nan nan nan 1 5 12 12 21 32 32 49 72 82 82 82
nan nan nan nan nan nan nan nan nan nan nan nan nan nan nan nan nan nan nan nan nan nan nan nan nan nan nan nan nan nan nan nan nan nan nan nan nan nan 0 1 1 2 2 2 2 1 1 1 1 2 2 2 2 2 1 1 1 0 0 nan nan nan nan nan nan nan nan nan nan nan nan nan nan nan nan 1 7 7 14 25 25 41 57 72 72 75
nan nan nan nan nan nan nan nan nan nan nan nan nan nan nan nan nan nan nan nan nan nan nan nan nan nan nan nan nan nan nan nan nan nan nan nan nan nan nan nan nan 0 0 1 1 1 1 0 0 0 2 2 2 2 2 2 2 1 0 nan nan nan 0 nan nan nan nan nan nan nan nan nan nan nan nan nan 1 1 7 16 16 29 45 60 60 67
3 1 nan nan nan nan nan nan nan nan nan nan nan nan nan nan nan nan nan nan nan nan nan nan nan nan nan nan nan nan nan nan nan nan nan nan nan nan nan nan nan nan nan nan nan 1 1 0 0 nan nan 0 1 1 1 2 2 2 1 1 1 0 1 1 1 0 0 0 nan nan nan nan nan nan nan nan nan nan 0 3 3 9 20 33 33 47
8 9 nan nan nan nan nan nan nan nan nan nan nan nan nan nan nan nan nan nan nan nan nan nan nan nan nan nan nan nan nan nan nan nan nan nan nan nan nan nan nan nan nan nan nan 0 0 nan nan nan nan nan 0 0 1 1 1 1 1 1 1 1 1 1 1 1 1 0 nan nan nan nan nan nan nan nan nan nan nan nan nan 4 10 22 22 32
4 9 3 nan nan nan nan nan nan nan nan nan nan nan nan nan nan nan nan nan nan nan nan nan nan nan nan nan nan nan nan nan nan nan nan nan nan nan nan nan nan nan nan nan nan nan nan nan nan nan nan nan nan nan nan nan nan 0 0 1 1 1 1 1 1 1 1 1 0 0 0 nan nan nan nan nan nan nan nan nan nan 0 3 11 11 20
1 5 3 nan nan nan nan nan nan nan nan nan nan nan nan nan nan nan nan nan nan nan nan nan nan nan nan nan nan nan nan nan nan nan nan nan nan nan nan nan nan nan nan nan nan nan nan nan nan nan nan nan nan nan nan nan nan nan 0 0 0 0 1 1 1 1 2 1 1 1 0 0 nan nan nan nan nan nan nan nan nan nan 0 3 3 9
3 6 1 nan nan nan nan nan nan nan nan nan nan nan nan nan nan nan nan nan nan nan nan nan nan nan nan nan nan nan nan nan nan nan nan nan nan nan nan nan nan nan nan nan nan nan nan nan nan nan nan nan nan nan nan nan nan nan nan 0 0 0 0 0 0 0 1 1 1 1 1 0 nan nan nan nan nan nan 0 nan nan nan nan 0 0 2
5 4 nan nan nan nan nan nan nan nan nan nan nan nan nan nan nan nan nan nan nan nan nan nan nan nan nan nan nan nan nan nan nan nan nan nan nan nan nan nan nan nan nan nan nan nan nan nan nan nan nan nan nan nan nan nan nan nan nan nan nan nan nan 0 0 0 1 1 1 1 1 1 0 0 nan nan 0 0 0 0 0 0 nan nan nan 0
3 1 0 nan nan nan nan nan nan nan nan nan nan nan nan nan nan nan nan nan nan nan nan nan nan nan nan nan nan nan nan nan nan nan nan nan nan nan nan nan nan nan nan nan nan nan nan nan nan nan nan nan nan nan nan nan nan nan nan nan nan nan nan nan nan 0 0 1 1 1 1 2 1 1 0 0 0 0 0 0 0 0 0 0 0 0
1 0 1 nan nan nan nan nan nan nan nan nan nan nan nan nan nan nan nan nan nan nan nan nan nan nan nan nan nan nan nan nan nan nan nan nan nan nan nan nan nan nan nan nan nan nan nan nan nan nan nan nan nan nan nan nan nan nan nan nan nan nan nan nan nan 0 0 1 1 1 1 1 2 2 1 1 0 0 0 0 0 0 0 0 0 0
nan 0 1 nan nan nan nan nan nan nan nan nan nan nan nan nan nan nan nan nan nan nan nan nan nan nan nan nan nan nan nan nan nan nan nan nan nan nan nan nan nan nan nan nan nan nan nan nan nan nan nan nan nan nan nan nan nan nan nan nan nan nan nan nan nan 0 0 1 1 1 1 1 1 1 1 1 0 0 0 0 0 0 0 0 0 0
nan nan nan nan nan nan nan nan nan nan nan nan nan nan nan nan nan nan nan nan nan nan nan nan nan nan nan nan nan nan nan nan nan nan nan nan nan nan nan nan nan nan nan nan nan nan nan nan nan nan nan nan nan nan nan nan nan nan nan nan nan nan nan nan nan 0 0 0 1 1 1 1 1 1 1 1 0 0 0 0 0 0 0 0 0 0
nan nan nan nan nan 1 nan nan nan nan nan nan nan nan nan nan nan nan nan nan nan nan nan nan nan nan nan nan nan nan nan nan nan nan nan nan nan nan nan nan nan nan nan nan nan nan nan nan nan nan nan nan nan nan nan nan nan nan nan nan nan nan nan nan nan nan 0 0 0 0 1 1 1 1 1 1 1 1 0 0 0 0 0 nan nan nan
nan nan 3 0 0 nan nan nan nan nan nan nan nan nan nan nan nan nan nan nan nan nan nan nan nan nan nan nan nan nan nan nan nan nan nan nan nan nan nan nan nan nan nan nan nan nan nan nan nan nan nan nan nan nan nan nan nan nan nan nan nan nan nan nan nan nan 0 0 0 0 1 0 1 1 1 1 1 1 1 0 0 0 0 nan nan nan
nan 1 nan nan nan nan nan nan nan nan nan nan nan nan nan nan nan nan nan nan nan nan nan nan nan nan nan nan nan nan nan nan nan nan nan nan nan nan nan nan nan nan nan nan nan nan nan nan nan nan nan nan nan nan nan nan nan nan nan nan nan nan nan nan nan nan nan 0 0 0 0 0 0 0 1 1 1 1 1 0 0 0 0 nan nan nan
nan 1 nan nan nan nan nan nan nan nan nan nan nan nan nan nan nan nan nan nan nan nan nan nan nan nan nan nan nan nan nan nan nan nan nan nan nan nan nan nan nan nan nan nan nan nan nan nan nan nan nan nan nan nan nan nan nan nan nan nan nan nan nan nan nan nan nan nan 0 0 0 0 0 0 1 1 1 1 1 1 1 0 0 0 0 nan
nan nan nan nan nan nan nan nan nan nan nan nan nan nan nan nan nan nan nan nan nan nan nan nan nan nan nan nan nan nan nan nan nan nan nan nan nan nan nan nan nan nan nan nan nan nan nan nan nan nan nan nan nan nan nan nan nan nan nan nan nan nan nan nan nan nan nan nan 0 0 1 1 1 1 1 1 1 1 1 1 1 1 1 0 0 nan
nan nan nan nan nan nan nan nan nan nan nan nan nan nan nan nan nan nan nan nan nan nan nan nan nan nan nan nan nan nan nan nan nan nan nan nan nan nan nan nan nan nan nan nan nan nan nan nan nan nan nan nan nan nan nan nan nan nan nan nan nan nan nan nan nan nan nan nan 0 0 1 1 2 2 2 2 2 2 2 2 2 2 1 0 0 nan
nan nan nan nan nan nan nan nan nan nan nan nan nan nan nan nan nan nan nan nan nan nan nan nan nan nan nan nan nan nan nan nan nan nan nan nan nan nan nan nan nan nan nan nan nan nan nan nan nan nan nan nan nan nan nan nan nan nan nan nan nan nan nan nan nan nan nan nan nan nan 1 1 2 2 3 3 3 3 3 3 3 3 2 1 1 nan
nan nan nan nan nan nan nan nan nan nan nan nan nan nan nan nan nan nan nan nan nan nan nan nan nan nan nan nan nan nan nan nan nan nan nan nan nan nan nan nan nan nan nan nan nan nan nan nan nan nan nan nan nan nan nan nan nan nan nan nan nan nan nan nan nan nan nan nan nan nan 0 1 2 2 3 3 4 4 4 4 4 4 3 1 1 0
nan nan nan nan nan 3 0 nan nan nan nan nan nan nan nan nan nan nan nan nan nan nan nan nan nan nan nan nan nan nan nan nan nan nan nan nan nan nan nan nan nan nan nan nan nan nan nan nan nan nan nan nan nan nan nan nan nan nan nan nan nan nan nan nan nan nan nan nan nan nan 0 1 2 2 3 3 4 4 4 4 4 4 4 2 2 1
7 5 7 5 5 1 0 0 0 0 0 nan nan nan nan nan nan nan nan nan nan nan nan nan nan nan nan nan nan nan nan nan nan nan nan nan nan nan nan nan nan nan nan nan nan nan nan nan nan nan nan nan nan nan nan nan nan nan nan nan nan nan nan nan nan nan nan nan nan nan 0 0 1 1 2 3 3 3 4 4 4 5 4 4 4 1
3 3 2 nan nan nan nan nan nan nan nan nan nan nan nan nan nan nan nan nan nan nan nan nan nan nan nan nan nan nan nan nan nan nan nan nan nan nan nan nan nan nan nan nan nan nan nan nan nan nan nan nan nan nan nan nan nan nan nan nan nan nan nan nan nan nan nan nan nan nan 0 0 1 1 1 2 3 3 3 4 4 5 5 nan nan nan
1 0 0 nan nan nan nan nan nan nan nan nan nan nan nan nan nan nan nan nan nan nan nan nan nan nan nan nan nan nan nan nan nan nan nan nan nan nan nan nan nan nan nan nan nan nan nan nan nan nan nan nan nan nan nan nan nan nan nan nan nan nan nan nan nan nan nan nan nan nan 0 0 1 1 1 1 1 1 2 3 3 5 1 nan nan nan
nan nan nan nan nan nan nan nan nan nan nan nan nan nan nan nan nan nan nan nan nan nan nan nan nan nan nan nan nan nan nan nan nan nan nan nan nan nan nan nan nan nan nan nan nan nan nan nan nan nan nan nan nan nan nan nan nan nan nan nan nan nan nan nan nan nan nan nan nan nan 0 1 1 1 1 1 1 1 1 2 2 1 nan nan nan nan
nan nan nan nan nan nan nan nan nan nan nan nan nan nan nan nan nan nan nan nan nan nan nan nan nan nan nan nan nan nan nan nan nan nan nan nan nan nan nan nan nan nan nan nan nan nan nan nan nan nan nan nan nan nan nan nan nan nan nan nan nan nan nan nan nan nan nan nan nan nan 0 0 1 1 1 1 0 0 1 2 2 nan nan nan nan nan
nan nan nan nan nan nan nan nan nan nan nan nan nan nan nan nan nan nan nan nan nan nan nan nan nan nan nan nan nan nan nan nan nan nan nan nan nan nan nan nan nan nan nan nan nan nan nan nan nan nan nan nan nan nan nan nan nan nan nan nan nan nan nan nan nan nan nan nan nan nan nan nan nan nan 0 0 1 1 0 1 1 1 nan nan nan nan
nan nan nan nan nan nan nan nan nan nan nan nan nan nan nan nan nan nan nan nan nan nan nan nan nan nan nan nan nan nan nan nan nan nan nan nan nan nan nan nan nan nan nan nan nan nan nan nan nan nan nan nan nan nan nan nan nan nan nan nan nan nan nan nan nan nan nan nan nan nan nan nan nan nan 0 0 1 1 0 0 0 0 nan nan nan nan
nan nan nan nan nan nan nan nan nan nan nan nan nan nan nan nan nan nan nan nan nan nan nan nan nan nan nan nan nan nan nan nan nan nan nan nan nan nan nan nan nan nan nan nan nan nan nan nan nan nan nan nan nan nan nan nan nan nan nan nan nan nan nan nan nan nan nan nan nan nan nan nan nan nan nan 0 1 1 1 0 0 0 0 nan nan nan
nan nan nan nan nan nan nan nan nan nan nan nan nan nan nan nan nan nan nan nan nan nan nan nan nan nan nan nan nan nan nan nan nan nan nan nan nan nan nan nan nan nan nan nan nan nan nan nan nan nan nan nan nan nan nan nan nan nan nan nan nan nan nan nan nan nan nan nan nan nan nan nan nan nan nan nan 0 0 1 0 0 0 nan 1 1 nan
nan nan nan nan nan nan nan nan nan nan nan nan nan nan nan nan nan nan nan nan nan nan nan nan nan nan nan nan nan nan nan nan nan nan nan nan nan nan nan nan nan nan nan nan nan nan nan nan nan nan nan nan nan nan nan nan nan nan nan nan nan nan nan nan nan nan nan nan nan nan nan nan nan nan nan nan 0 0 0 0 0 nan nan 0 0 0
nan nan 1 nan nan nan 1 nan nan nan nan nan nan nan nan nan nan nan nan nan nan nan nan nan nan nan nan nan nan nan nan nan nan nan nan nan nan nan nan nan nan nan nan nan nan nan nan nan nan nan nan nan nan nan nan nan nan nan nan nan nan nan nan nan nan nan nan nan nan nan nan nan nan nan nan nan nan nan nan nan nan nan 0 0 0 0
0 1 1 0 0 nan nan nan nan nan nan nan nan nan nan nan nan nan nan nan nan nan nan nan nan nan nan nan nan nan nan nan nan nan nan nan nan nan nan nan nan nan nan nan nan nan nan nan nan nan nan nan nan nan nan nan nan nan nan nan nan nan nan nan nan nan nan nan nan nan nan nan nan nan nan nan nan nan nan nan nan nan nan nan nan 0
nan nan 1 1 1 0 nan nan nan nan nan nan nan nan nan nan nan nan nan nan nan nan nan nan nan nan nan nan nan nan nan nan nan nan nan nan nan nan nan nan nan nan nan nan nan nan nan nan nan nan nan nan nan nan nan nan nan nan nan nan nan nan nan nan nan nan nan nan nan nan nan nan nan nan nan nan nan nan nan nan nan nan nan nan nan nan
0 nan 1 1 1 nan nan nan nan nan nan nan nan nan nan nan nan nan nan nan nan nan nan nan nan nan nan nan nan nan nan nan nan nan nan nan nan nan nan nan nan nan nan nan nan nan nan nan nan nan nan nan nan nan nan nan nan nan nan nan nan nan nan nan nan nan nan nan nan nan nan nan nan nan nan nan nan nan nan nan nan nan nan nan nan nan
1 0 0 nan nan nan nan nan nan nan nan nan nan nan nan nan nan nan nan nan nan nan nan nan nan nan nan nan nan nan nan nan nan nan nan nan nan nan nan nan nan nan nan nan nan nan 0 nan nan nan nan nan nan nan nan nan nan nan 0 nan nan nan nan nan nan nan nan nan nan nan nan nan nan nan nan nan nan nan nan nan nan nan nan nan nan nan
2 1 nan nan nan nan nan nan nan nan nan nan nan nan nan nan nan nan nan nan nan nan nan nan nan nan nan nan nan nan nan nan nan nan nan nan nan nan nan nan nan nan nan nan nan 0 1 1 1 1 0 nan nan nan nan nan nan nan nan nan nan nan nan nan nan nan nan nan nan nan nan nan nan nan nan nan nan nan nan nan nan nan nan nan nan nan
0 nan nan nan nan nan nan nan nan nan nan nan nan nan nan nan nan nan 3 nan nan nan nan nan nan nan 0 nan nan nan nan nan nan nan nan nan nan nan nan nan nan nan nan nan nan nan nan 0 0 0 nan nan nan nan nan nan nan nan nan nan nan nan nan nan nan nan nan nan nan nan nan nan nan nan nan nan nan nan nan nan nan nan nan nan nan nan
nan nan nan nan nan nan nan nan nan nan 1 0 1 1 nan nan 1 1 3 nan nan nan nan nan nan nan 0 nan nan nan nan nan nan nan nan nan nan nan nan nan nan nan nan nan nan nan nan nan nan nan nan nan nan nan 0 nan nan nan nan nan nan nan nan nan nan nan nan nan nan nan nan nan nan nan nan nan nan nan nan nan nan nan nan nan nan nan
nan nan nan nan nan nan nan nan 1 1 1 2 0 0 nan nan 2 2 0 nan nan nan nan nan nan nan 1 1 nan nan nan nan nan nan nan nan 2 2 nan nan nan nan nan nan nan nan nan nan nan nan nan nan nan nan 0 nan nan nan nan nan nan nan nan nan nan nan nan nan nan nan nan nan nan nan nan nan nan nan nan nan nan nan nan nan nan nan
0 nan nan nan nan nan 1 0 nan nan nan 0 0 0 0 0 nan nan nan nan nan nan nan nan nan 0 2 3 nan nan nan nan nan nan nan nan nan nan nan nan nan nan nan nan nan nan nan nan nan nan nan nan nan nan nan nan nan nan nan nan nan nan nan nan nan nan nan nan nan nan nan nan nan nan nan nan nan nan nan nan nan nan nan nan nan nan
nan nan nan nan nan nan 0 nan nan nan nan nan nan nan nan nan nan nan nan nan nan nan nan nan nan 1 3 4 2 2 2 nan nan nan nan nan nan nan nan nan nan nan nan nan nan nan nan nan nan nan nan nan nan nan nan nan nan nan nan nan nan nan nan nan nan nan nan nan nan nan nan nan nan nan nan nan nan nan nan nan nan nan nan nan nan nan
nan nan nan nan nan nan nan nan nan nan nan nan nan nan nan nan nan nan nan nan nan nan 2 nan nan nan 1 1 1 1 1 nan nan nan nan nan nan nan nan nan nan nan nan nan nan nan nan nan nan nan nan nan nan nan nan nan nan nan nan nan nan nan nan nan nan nan nan nan nan nan nan nan nan nan nan nan nan nan nan nan nan nan nan nan nan nan
nan nan nan nan nan nan nan nan nan nan nan nan nan nan nan nan 7 7 nan nan nan nan 0 0 0 0 0 0 nan nan nan nan nan nan nan nan nan nan nan nan nan nan nan nan nan nan nan nan nan nan nan nan nan nan nan nan nan nan nan nan nan nan nan nan nan nan nan nan nan nan nan nan nan nan nan nan nan nan nan nan nan nan nan nan nan nan
nan nan nan nan nan nan nan nan 0 0 nan nan nan nan nan nan nan nan nan nan nan 2 5 4 4 2 0 nan nan nan nan nan nan nan nan nan nan nan nan nan nan nan nan nan nan nan nan nan nan nan nan nan nan nan nan nan nan nan nan nan nan nan nan nan nan nan nan nan nan nan nan nan nan nan nan 1 0 0 nan nan nan nan nan nan nan nan
nan nan nan nan nan nan nan nan 0 0 0 0 0 0 1 nan nan nan 3 3 3 4 6 nan nan nan nan nan nan nan nan nan nan nan nan nan nan nan nan nan nan nan nan nan nan nan nan 0 0 nan 2 5 nan nan nan nan nan nan nan nan nan nan nan nan nan nan nan nan nan nan nan nan nan nan nan 0 nan nan nan nan nan nan nan nan nan nan
CIN
nan nan nan nan nan nan nan nan nan nan nan nan nan nan nan nan nan nan nan nan nan nan nan nan nan nan nan nan nan nan nan nan -0 -0 -0 -0 -0 -0 -0 -0 -0 -0 -0 -0 -0 -0 -0 -0 -0 -0 -0 -0 -0 -0 -0 -0 -0 -0 -0 -0 -0 -0 -0 -0 -0 -0 -0 -0 -0 -0 -0 -0 -0 -0 -0 -0 -0 -0 -0 -0 -0 -0 -0 -0 -0 -0
nan nan nan nan nan nan nan nan nan nan nan nan nan nan nan nan nan nan nan nan nan nan nan nan nan nan nan nan nan nan nan nan nan nan -0 -0 -0 -0 -0 -0 -0 -0 -0 -0 -0 -0 -0 -0 -0 -0 -0 -0 -0 -0 -0 -0 -0 -0 -0 -0 -0 -0 -0 -0 -0 -0 -0 -0 -0 -0 -0 -0 -0 -0 -0 -0 -0 -0 -0 -0 -0 -0 -0 -0 -0 -0
nan nan nan nan nan nan nan nan nan nan nan nan nan nan nan nan nan nan nan nan nan nan nan nan nan nan nan nan nan nan nan nan nan nan -0 -0 -0 -0 -0 -0 -0 -0 -0 -0 -0 -0 -0 -0 -0 -0 -0 -0 -0 -0 -0 -0 -0 -0 -0 -0 -0 -0 -0 -0 -0 -0 -0 nan nan nan nan -0 -0 -0 -0 -0 -0 -0 -0 -0 -0 -0 -0 -0 -0 -0
nan nan nan nan nan nan nan nan nan nan nan nan nan nan nan nan nan nan nan nan nan nan nan nan nan nan nan nan nan nan nan nan nan nan nan -0 -0 -0 -0 -0 -0 -0 -0 -0 -0 -0 -0 -0 -0 -0 -0 -0 -0 -0 -0 -0 -0 -0 -0 -0 -0 -0 nan nan nan nan nan nan nan nan nan nan -0 -0 -0 -0 -0 -0 -0 -0 -0 -0 -0 -0 -0 -0
nan nan nan nan nan nan nan nan nan nan nan nan nan nan nan nan nan nan nan nan nan nan nan nan nan nan nan nan nan nan nan nan nan nan nan nan -0 -0 -0 -0 -0 -0 -0 -0 -0 -0 -0 -0 -0 -0 -0 -0 -0 -0 -0 -0 -0 -0 -0 nan nan nan nan nan nan nan nan nan nan nan nan nan nan nan -0 -0 -0 -0 -0 -0 -0 -0 -0 -0 -0 -0
nan nan nan nan nan nan nan nan nan nan nan nan nan nan nan nan nan nan nan nan nan nan nan nan nan nan nan nan nan nan nan nan nan nan nan nan nan nan -0 -0 -0 -0 -0 -0 -0 -0 -0 -0 -0 -0 -0 -0 -0 -0 -0 -0 -0 -0 -0 nan nan nan nan nan nan nan nan nan nan nan nan nan nan nan nan -0 -0 -0 -0 -0 -0 -0 -0 -0 -0 -0
nan nan nan nan nan nan nan nan nan nan nan nan nan nan nan nan nan nan nan nan nan nan nan nan nan nan nan nan nan nan nan nan nan nan nan nan nan nan nan nan nan -0 -0 -0 -0 -0 -0 -0 -0 -0 -0 -0 -0 -0 -0 -0 -0 -0 -0 nan nan nan -0 nan nan nan nan nan nan nan nan nan nan nan nan nan -0 -0 -0 -0 -0 -0 -0 -0 -0 -0
-19 -36 nan nan nan nan nan nan nan nan nan nan nan nan nan nan nan nan nan nan nan nan nan nan nan nan nan nan nan nan nan nan nan nan nan nan nan nan nan nan nan nan nan nan nan -0 -0 -0 -0 nan nan -0 -0 -0 -0 -0 -0 -0 -0 -0 -0 -0 -0 -0 -0 -0 -0 -0 nan nan nan nan nan nan nan nan nan nan -0 -0 -0 -0 -0 -0 -0 -0
-11 -13 nan nan nan nan nan nan nan nan nan nan nan nan nan nan nan nan nan nan nan nan nan nan nan nan nan nan nan nan nan nan nan nan nan nan nan nan nan nan nan nan nan nan nan -0 -0 nan nan nan nan nan -0 -0 -0 -0 -0 -0 -0 -0 -0 -0 -0 -0 -0 -0 -0 -0 nan nan nan nan nan nan nan nan nan nan nan nan nan -0 -0 -0 -0 -0
-20 -15 -30 nan nan nan nan nan nan nan nan nan nan nan nan nan nan nan nan nan nan nan nan nan nan nan nan nan nan nan nan nan nan nan nan nan nan nan nan nan nan nan nan nan nan nan nan nan nan nan nan nan nan nan nan nan nan -0 -0 -0 -0 -0 -0 -0 -0 -0 -0 -0 -0 -0 -0 nan nan nan nan nan nan nan nan nan nan -0 -0 -0 -0 -0
-26 -25 -35 nan nan nan nan nan nan nan nan nan nan nan nan nan nan nan nan nan nan nan nan nan nan nan nan nan nan nan nan nan nan nan nan nan nan nan nan nan nan nan nan nan nan nan nan nan nan nan nan nan nan nan nan nan nan nan -0 -0 -0 -0 -0 -0 -0 -0 -0 -0 -0 -0 -0 -0 nan nan nan nan nan nan nan nan nan nan -0 -0 -0 -0
-19 -20 -38 nan nan nan nan nan nan nan nan nan nan nan nan nan nan nan nan nan nan nan nan nan nan nan nan nan nan nan nan nan nan nan nan nan nan nan nan nan nan nan nan nan nan nan nan nan nan nan nan nan nan nan nan nan nan nan nan -0 -0 -0 -0 -0 -0 -0 -0 -0 -0 -0 -0 -0 nan nan nan nan nan nan -0 nan nan nan nan -0 -0 -0
-15 -20 nan nan nan nan nan nan nan nan nan nan nan nan nan nan nan nan nan nan nan nan nan nan nan nan nan nan nan nan nan nan nan nan nan nan nan nan nan nan nan nan nan nan nan nan nan nan nan nan nan nan nan nan nan nan nan nan nan nan nan nan nan -0 -0 -0 -0 -0 -0 -0 -0 -0 -0 -0 nan nan -0 -0 -0 -0 -0 -0 nan nan nan -0
-13 -28 -29 nan nan nan nan nan nan nan nan nan nan nan nan nan nan nan nan nan nan nan nan nan nan nan nan nan nan nan nan nan nan nan nan nan nan nan nan nan nan nan nan nan nan nan nan nan nan nan nan nan nan nan nan nan nan nan nan nan nan nan nan nan nan -0 -0 -0 -0 -0 -0 -0 -0 -0 -0 -0 -0 -0 -0 -0 -0 -0 -0 -0 -0 -0
-6 -15 -12 nan nan nan nan nan nan nan nan nan nan nan nan nan nan nan nan nan nan nan nan nan nan nan nan nan nan nan nan nan nan nan nan nan nan nan nan nan nan nan nan nan nan nan nan nan nan nan nan nan nan nan nan nan nan nan nan nan nan nan nan nan nan -0 -0 -0 -0 -0 -0 -0 -0 -0 -0 -0 -0 -0 -0 -0 -0 -0 -0 -0 -0 -0
nan -2 -1 nan nan nan nan nan nan nan nan nan nan nan nan nan nan nan nan nan nan nan nan nan nan nan nan nan nan nan nan nan nan nan nan nan nan nan nan nan nan nan nan nan nan nan nan nan nan nan nan nan nan nan nan nan nan nan nan nan nan nan nan nan nan -0 -0 -0 -0 -0 -0 -0 -0 -0 -0 -0 -0 -0 -0 -0 -0 -0 -0 -0 -0 -0
nan nan nan nan nan nan nan nan nan nan nan nan nan nan nan nan nan nan nan nan nan nan nan nan nan nan nan nan nan nan nan nan nan nan nan nan nan nan nan nan nan nan nan nan nan nan nan nan nan nan nan nan nan nan nan nan nan nan nan nan nan nan nan nan nan -0 -0 -0 -0 -0 -0 -0 -0 -0 -0 -0 -0 -0 -0 -0 -0 -0 -0 -0 -0 -0
nan nan nan nan nan -3 nan nan nan nan nan nan nan nan nan nan nan nan nan nan nan nan nan nan nan nan nan nan nan nan nan nan nan nan nan nan nan nan nan nan nan nan nan nan nan nan nan nan nan nan nan nan nan nan nan nan nan nan nan nan nan nan nan nan nan nan -0 -0 -0 -0 -0 -0 -0 -0 -0 -0 -0 -0 -0 -0 -0 -0 -0 nan nan nan
nan nan -1 -2 -2 nan nan nan nan nan nan nan nan nan nan nan nan nan nan nan nan nan nan nan nan nan nan nan nan nan nan nan nan nan nan nan nan nan nan nan nan nan nan nan nan nan nan nan nan nan nan nan nan nan nan nan nan nan nan nan nan nan nan nan nan nan -0 -0 -0 -0 -0 -0 -0 -0 -0 -0 -0 -0 -0 -0 -0 -0 -0 nan nan nan
nan -3 nan nan nan nan nan nan nan nan nan nan nan nan nan nan nan nan nan nan nan nan nan nan nan nan nan nan nan nan nan nan nan nan nan nan nan nan nan nan nan nan nan nan nan nan nan nan nan nan nan nan nan nan nan nan nan nan nan nan nan nan nan nan nan nan nan -0 -0 -0 -0 -0 -0 -0 -0 -0 -0 -0 -0 -0 -0 -0 -0 nan nan nan
nan -3 nan nan nan nan nan nan nan nan nan nan nan nan nan nan nan nan nan nan nan nan nan nan nan nan nan nan nan nan nan nan nan nan nan nan nan nan nan nan nan nan nan nan nan nan nan nan nan nan nan nan nan nan nan nan nan nan nan nan nan nan nan nan nan nan nan nan -0 -0 -0 -0 -0 -0 -0 -0 -0 -0 -0 -0 -0 -0 -0 -0 -0 nan
nan nan nan nan nan nan nan nan nan nan nan nan nan nan nan nan nan nan nan nan nan nan nan nan nan nan nan nan nan nan nan nan nan nan nan nan nan nan nan nan nan nan nan nan nan nan nan nan nan nan nan nan nan nan nan nan nan nan nan nan nan nan nan nan nan nan nan nan -0 -0 -0 -0 -0 -0 -0 -0 -0 -0 -0 -0 -0 -0 -0 -0 -0 nan
nan nan nan nan nan nan nan nan nan nan nan nan nan nan nan nan nan nan nan nan nan nan nan nan nan nan nan nan nan nan nan nan nan nan nan nan nan nan nan nan nan nan nan nan nan nan nan nan nan nan nan nan nan nan nan nan nan nan nan nan nan nan nan nan nan nan nan nan -0 -0 -0 -0 -0 -0 -0 -0 -0 -0 -0 -0 -0 -0 -0 -0 -0 nan
nan nan nan nan nan nan nan nan nan nan nan nan nan nan nan nan nan nan nan nan nan nan nan nan nan nan nan nan nan nan nan nan nan nan nan nan nan nan nan nan nan nan nan nan nan nan nan nan nan nan nan nan nan nan nan nan nan nan nan nan nan nan nan nan nan nan nan nan nan nan -0 -0 -0 -0 -0 -0 -0 -0 -0 -0 -0 -0 -0 -0 -0 nan
nan nan nan nan nan nan nan nan nan nan nan nan nan nan nan nan nan nan nan nan nan nan nan nan nan nan nan nan nan nan nan nan nan nan nan nan nan nan nan nan nan nan nan nan nan nan nan nan nan nan nan nan nan nan nan nan nan nan nan nan nan nan nan nan nan nan nan nan nan nan -0 -0 -0 -0 -0 -0 -0 -0 -0 -0 -0 -0 -0 -0 -0 -0
nan nan nan nan nan -5 -4 nan nan nan nan nan nan nan nan nan nan nan nan nan nan nan nan nan nan nan nan nan nan nan nan nan nan nan nan nan nan nan nan nan nan nan nan nan nan nan nan nan nan nan nan nan nan nan nan nan nan nan nan nan nan nan nan nan nan nan nan nan nan nan -0 -0 -0 -0 -0 -0 -0 -0 -0 -0 -0 -0 -0 -0 -0 -1
-7 -7 -1 -0 -0 -0 -0 -0 -0 -0 -0 nan nan nan nan nan nan nan nan nan nan nan nan nan nan nan nan nan nan nan nan nan nan nan nan nan nan nan nan nan nan nan nan nan nan nan nan nan nan nan nan nan nan nan nan nan nan nan nan nan nan nan nan nan nan nan nan nan nan nan -0 -0 -0 -0 -0 -0 -0 -0 -0 -0 -0 -0 -0 -0 -0 -5
-3 -4 -4 nan nan nan nan nan nan nan nan nan nan nan nan nan nan nan nan nan nan nan nan nan nan nan nan nan nan nan nan nan nan nan nan nan nan nan nan nan nan nan nan nan nan nan nan nan nan nan nan nan nan nan nan nan nan nan nan nan nan nan nan nan nan nan nan nan nan nan -0 -0 -0 -0 -0 -0 -0 -0 -0 -0 -0 -0 -0 nan nan nan
-3 -2 -2 nan nan nan nan nan nan nan nan nan nan nan nan nan nan nan nan nan nan nan nan nan nan nan nan nan nan nan nan nan nan nan nan nan nan nan nan nan nan nan nan nan nan nan nan nan nan nan nan nan nan nan nan nan nan nan nan nan nan nan nan nan nan nan nan nan nan nan -0 -0 -0 -0 -0 -0 -0 -0 -0 -0 -0 -0 -7 nan nan nan
nan nan nan nan nan nan nan nan nan nan nan nan nan nan nan nan nan nan nan nan nan nan nan nan nan nan nan nan nan nan nan nan nan nan nan nan nan nan nan nan nan nan nan nan nan nan nan nan nan nan nan nan nan nan nan nan nan nan nan nan nan nan nan nan nan nan nan nan nan nan -0 -0 -0 -0 -0 -0 -0 -0 -0 -0 -0 -9 nan nan nan nan
nan nan nan nan nan nan nan nan nan nan nan nan nan nan nan nan nan nan nan nan nan nan nan nan nan nan nan nan nan nan nan nan nan nan nan nan nan nan nan nan nan nan nan nan nan nan nan nan nan nan nan nan nan nan nan nan nan nan nan nan nan nan nan nan nan nan nan nan nan nan -0 -0 -0 -0 -0 -0 -0 -0 -0 -0 -0 nan nan nan nan nan
nan nan nan nan nan nan nan nan nan nan nan nan nan nan nan nan nan nan nan nan nan nan nan nan nan nan nan nan nan nan nan nan nan nan nan nan nan nan nan nan nan nan nan nan nan nan nan nan nan nan nan nan nan nan nan nan nan nan nan nan nan nan nan nan nan nan nan nan nan nan nan nan nan nan -0 -0 -0 -0 -0 -0 -0 -0 nan nan nan nan
nan nan nan nan nan nan nan nan nan nan nan nan nan nan nan nan nan nan nan nan nan nan nan nan nan nan nan nan nan nan nan nan nan nan nan nan nan nan nan nan nan nan nan nan nan nan nan nan nan nan nan nan nan nan nan nan nan nan nan nan nan nan nan nan nan nan nan nan nan nan nan nan nan nan -0 -0 -0 -0 -0 -0 -0 -0 nan nan nan nan
nan nan nan nan nan nan nan nan nan nan nan nan nan nan nan nan nan nan nan nan nan nan nan nan nan nan nan nan nan nan nan nan nan nan nan nan nan nan nan nan nan nan nan nan nan nan nan nan nan nan nan nan nan nan nan nan nan nan nan nan nan nan nan nan nan nan nan nan nan nan nan nan nan nan nan -2 -0 -0 -0 -0 -0 -0 -0 nan nan nan
nan nan nan nan nan nan nan nan nan nan nan nan nan nan nan nan nan nan nan nan nan nan nan nan nan nan nan nan nan nan nan nan nan nan nan nan nan nan nan nan nan nan nan nan nan nan nan nan nan nan nan nan nan nan nan nan nan nan nan nan nan nan nan nan nan nan nan nan nan nan nan nan nan nan nan nan -0 -0 -0 -0 -0 -0 nan -0 -0 nan
nan nan nan nan nan nan nan nan nan nan nan nan nan nan nan nan nan nan nan nan nan nan nan nan nan nan nan nan nan nan nan nan nan nan nan nan nan nan nan nan nan nan nan nan nan nan nan nan nan nan nan nan nan nan nan nan nan nan nan nan nan nan nan nan nan nan nan nan nan nan nan nan nan nan nan nan -0 -0 -0 -0 -0 nan nan -0 -0 -2
nan nan -18 nan nan nan -17 nan nan nan nan nan nan nan nan nan nan nan nan nan nan nan nan nan nan nan nan nan nan nan nan nan nan nan nan nan nan nan nan nan nan nan nan nan nan nan nan nan nan nan nan nan nan nan nan nan nan nan nan nan nan nan nan nan nan nan nan nan nan nan nan nan nan nan nan nan nan nan nan nan nan nan -0 -0 -0 -0
-19 -15 -18 -29 -29 nan nan nan nan nan nan nan nan nan nan nan nan nan nan nan nan nan nan nan nan nan nan nan nan nan nan nan nan nan nan nan nan nan nan nan nan nan nan nan nan nan nan nan nan nan nan nan nan nan nan nan nan nan nan nan nan nan nan nan nan nan nan nan nan nan nan nan nan nan nan nan nan nan nan nan nan nan nan nan nan -3
nan nan -22 -25 -25 -28 nan nan nan nan nan nan nan nan nan nan nan nan nan nan nan nan nan nan nan nan nan nan nan nan nan nan nan nan nan nan nan nan nan nan nan nan nan nan nan nan nan nan nan nan nan nan nan nan nan nan nan nan nan nan nan nan nan nan nan nan nan nan nan nan nan nan nan nan nan nan nan nan nan nan nan nan nan nan nan nan
-26 nan -26 -26 -26 nan nan nan nan nan nan nan nan nan nan nan nan nan nan nan nan nan nan nan nan nan nan nan nan nan nan nan nan nan nan nan nan nan nan nan nan nan nan nan nan nan nan nan nan nan nan nan nan nan nan nan nan nan nan nan nan nan nan nan nan nan nan nan nan nan nan nan nan nan nan nan nan nan nan nan nan nan nan nan nan nan
-25 -30 -26 nan nan nan nan nan nan nan nan nan nan nan nan nan nan nan nan nan nan nan nan nan nan nan nan nan nan nan nan nan nan nan nan nan nan nan nan nan nan nan nan nan nan nan -4 nan nan nan nan nan nan nan nan nan nan nan -2 nan nan nan nan nan nan nan nan nan nan nan nan nan nan nan nan nan nan nan nan nan nan nan nan nan nan nan
-20 -24 nan nan nan nan nan nan nan nan nan nan nan nan nan nan nan nan nan nan nan nan nan nan nan nan nan nan nan nan nan nan nan nan nan nan nan nan nan nan nan nan nan nan nan -2 -3 -3 -3 -2 -4 nan nan nan nan nan nan nan nan nan nan nan nan nan nan nan nan nan nan nan nan nan nan nan nan nan nan nan nan nan nan nan nan nan nan nan
-26 nan nan nan nan nan nan nan nan nan nan nan nan nan nan nan nan nan -12 nan nan nan nan nan nan nan -5 nan nan nan nan nan nan nan nan nan nan nan nan nan nan nan nan nan nan nan nan -3 -3 -3 nan nan nan nan nan nan nan nan nan nan nan nan nan nan nan nan nan nan nan nan nan nan nan nan nan nan nan nan nan nan nan nan nan nan nan nan
nan nan nan nan nan nan nan nan nan nan -23 -25 -22 -22 nan nan -21 -21 -15 nan nan nan nan nan nan nan -6 nan nan nan nan nan nan nan nan nan nan nan nan nan nan nan nan nan nan nan nan nan nan nan nan nan nan nan -3 nan nan nan nan nan nan nan nan nan nan nan nan nan nan nan nan nan nan nan nan nan nan nan nan nan nan nan nan nan nan nan
nan nan nan nan nan nan nan nan -22 -22 -22 -17 -28 -28 nan nan -19 -19 -19 nan nan nan nan nan nan nan -4 -3 nan nan nan nan nan nan nan nan -21 -21 nan nan nan nan nan nan nan nan nan nan nan nan nan nan nan nan -2 nan nan nan nan nan nan nan nan nan nan nan nan nan nan nan nan nan nan nan nan nan nan nan nan nan nan nan nan nan nan nan
-17 nan nan nan nan nan -21 -25 nan nan nan -21 -23 -23 -24 -26 nan nan nan nan nan nan nan nan nan -6 -1 -2 nan nan nan nan nan nan nan nan nan nan nan nan nan nan nan nan nan nan nan nan nan nan nan nan nan nan nan nan nan nan nan nan nan nan nan nan nan nan nan nan nan nan nan nan nan nan nan nan nan nan nan nan nan nan nan nan nan nan
nan nan nan nan nan nan -30 nan nan nan nan nan nan nan nan nan nan nan nan nan nan nan nan nan nan -7 -2 -3 -7 -7 -5 nan nan nan nan nan nan nan nan nan nan nan nan nan nan nan nan nan nan nan nan nan nan nan nan nan nan nan nan nan nan nan nan nan nan nan nan nan nan nan nan nan nan nan nan nan nan nan nan nan nan nan nan nan nan nan
nan nan nan nan nan nan nan nan nan nan nan nan nan nan nan nan nan nan nan nan nan nan -8 nan nan nan -7 -8 -11 -11 -7 nan nan nan nan nan nan nan nan nan nan nan nan nan nan nan nan nan nan nan nan nan nan nan nan nan nan nan nan nan nan nan nan nan nan nan nan nan nan nan nan nan nan nan nan nan nan nan nan nan nan nan nan nan nan nan
nan nan nan nan nan nan nan nan nan nan nan nan nan nan nan nan -0 -0 nan nan nan nan -14 -12 -12 -11 -10 -13 nan nan nan nan nan nan nan nan nan nan nan nan nan nan nan nan nan nan nan nan nan nan nan nan nan nan nan nan nan nan nan nan nan nan nan nan nan nan nan nan nan nan nan nan nan nan nan nan nan nan nan nan nan nan nan nan nan nan
nan nan nan nan nan nan nan nan -28 -28 nan nan nan nan nan nan nan nan nan nan nan -16 -8 -6 -6 -7 -10 nan nan nan nan nan nan nan nan nan nan nan nan nan nan nan nan nan nan nan nan nan nan nan nan nan nan nan nan nan nan nan nan nan nan nan nan nan nan nan nan nan nan nan nan nan nan nan nan -4 -3 -3 nan nan nan nan nan nan nan nan
nan nan nan nan nan nan nan nan -17 -17 -16 -14 -14 -14 -12 nan nan nan -16 -12 -12 -5 -2 nan nan nan nan nan nan nan nan nan nan nan nan nan nan nan nan nan nan nan nan nan nan nan nan -9 -9 nan -5 -0 nan nan nan nan nan nan nan nan nan nan nan nan nan nan nan nan nan nan nan nan nan nan nan -7 nan nan nan nan nan nan nan nan nan nan
Wind_Speed
2 2 1 2 2 1 1 1 1 1 1 1 1 2 2 2 2 2 2 1 1 1 1 1 1 1 1 1 3 5 7 8 9 9 10 11 11 12 12 12 13 13 13 14 14 15 15 15 16 16 17 17 17 18 18 19 19 19 20 20 20 21 21 22 22 23 23 24 24 24 24 25 25 24 24 24 23 23 22 22 22 21 21 21 21 22
1 1 1 2 2 2 1 1 1 2 1 1 1 2 2 2 2 2 1 1 1 1 1 2 2 1 1 0 2 4 5 6 7 8 9 10 10 11 11 12 12 13 13 13 14 14 15 15 15 16 16 17 17 17 18 18 18 19 19 19 20 20 20 21 21 22 22 23 23 23 24 24 24 24 24 24 23 23 22 22 22 22 22 21 21 21
1 1 1 2 2 2 1 1 1 2 2 2 2 2 2 2 2 2 2 2 2 2 2 2 2 1 1 1 1 3 4 5 6 7 8 8 9 10 11 11 12 12 13 13 13 14 14 15 15 15 16 16 16 17 17 17 18 18 18 18 19 19 19 20 20 21 21 21 22 22 23 23 24 24 24 24 23 23 22 21 21 21 21 21 20 20
1 1 2 2 2 2 2 2 2 2 2 2 2 2 2 2 2 2 2 2 2 2 2 2 1 1 1 1 1 2 3 4 5 6 6 7 8 9 9 10 11 11 12 12 13 13 14 14 15 15 15 16 16 16 16 17 17 17 17 17 18 18 18 19 19 19 20 20 21 21 22 22 23 23 23 23 23 22 22 21 21 20 20 20 20 19
1 1 2 2 2 1 2 2 1 1 1 2 2 2 2 2 2 2 2 1 1 2 2 2 1 1 2 2 2 2 2 3 4 4 5 6 7 7 8 9 10 10 11 11 12 12 13 14 14 14 15 15 16 16 16 16 16 16 17 17 17 17 18 18 18 18 19 19 19 20 20 21 21 21 22 22 22 22 22 21 21 20 19 19 19 18
1 0 1 1 1 1 1 1 1 1 1 1 2 2 2 2 2 2 2 1 1 1 2 2 2 2 2 2 2 3 2 2 2 3 4 5 6 6 7 7 8 9 9 10 11 12 12 13 13 14 14 15 15 16 16 16 16 16 16 16 17 17 17 17 17 18 18 18 18 19 19 19 20 20 20 21 21 21 21 21 20 20 19 18 18 18
1 0 2 1 0 0 1 1 1 1 1 1 1 1 1 1 1 1 2 2 2 1 1 2 2 1 1 2 2 2 2 1 1 2 3 4 5 5 6 6 7 7 8 9 10 10 11 12 13 13 14 14 15 15 16 16 16 16 16 16 16 16 16 17 17 17 17 17 17 17 18 18 18 18 19 19 19 20 20 20 20 19 19 18 18 17
2 1 1 1 0 1 1 1 1 1 1 1 0 1 1 1 1 1 1 1 1 1 0 1 2 2 1 1 1 1 1 1 0 1 2 2 3 4 5 6 6 6 7 7 8 9 10 11 12 13 13 14 14 15 15 15 15 15 15 16 16 16 16 16 16 16 16 16 16 17 17 17 17 17 17 18 18 18 19 19 19 19 19 18 18 17
2 2 0 0 1 0 1 2 1 1 1 1 1 1 0 1 1 1 2 1 1 0 0 0 1 2 2 1 1 1 1 1 1 1 1 1 1 2 4 5 5 6 6 6 7 7 8 10 11 12 13 13 14 14 14 14 15 15 15 15 15 15 15 16 16 16 16 16 16 16 16 16 16 16 16 16 17 17 17 18 18 18 18 18 18 18
2 2 1 0 1 1 1 1 1 1 1 1 1 2 2 1 0 1 2 2 2 1 0 0 0 1 2 2 1 1 1 1 2 2 3 2 3 3 3 4 4 5 6 6 6 7 7 9 10 11 12 13 13 13 13 14 14 14 14 15 15 15 15 15 15 15 15 15 15 15 15 15 15 15 15 15 16 16 16 16 17 17 18 18 18 17
2 2 1 1 1 0 0 1 1 1 1 1 1 0 1 1 1 1 1 2 2 2 2 1 1 1 1 2 2 2 2 2 2 3 3 3 2 2 3 4 5 5 6 5 5 6 7 8 9 10 11 12 12 12 12 13 13 14 14 14 14 15 15 15 15 15 15 15 15 15 15 15 15 15 15 15 15 15 15 15 16 16 16 17 17 17
1 1 1 1 1 1 1 1 1 1 2 2 2 2 2 0 1 2 1 1 2 2 2 1 1 1 1 1 1 1 2 2 2 3 3 2 2 2 3 3 4 5 5 4 5 6 7 7 8 9 10 10 11 12 12 12 12 13 13 14 14 14 14 15 15 15 15 14 14 14 14 14 14 14 14 14 14 14 14 14 14 15 15 15 16 16
1 1 1 0 1 1 1 1 1 1 1 1 0 0 1 1 0 2 2 1 2 2 2 2 2 1 1 0 0 1 1 2 2 2 2 2 1 1 1 2 2 3 2 2 3 3 5 6 7 8 8 9 9 10 11 11 12 12 13 13 13 14 14 14 14 14 14 14 14 14 14 14 14 13 13 13 13 13 13 13 14 14 14 14 14 15
2 1 1 1 1 1 1 1 1 1 1 1 1 2 2 1 0 1 1 1 1 1 1 1 2 2 2 2 1 1 1 1 2 2 2 2 2 1 0 1 1 2 1 1 2 2 2 3 4 5 7 7 7 8 9 10 11 12 12 12 13 13 14 14 14 14 14 14 14 14 13 13 13 13 13 13 13 13 13 13 13 13 13 13 13 14
2 2 2 1 1 1 1 1 1 1 1 1 1 1 0 1 1 1 1 1 2 2 1 1 2 2 2 2 2 1 2 2 2 2 3 3 2 1 0 0 1 1 1 1 1 2 1 1 2 2 3 4 5 6 7 9 10 11 12 12 12 13 13 13 14 14 14 14 14 13 13 13 13 13 12 12 12 12 12 12 12 12 12 13 13 13
2 2 2 2 2 2 2 1 1 1 1 1 0 1 1 1 1 1 1 1 1 1 2 2 2 2 2 2 2 2 2 2 1 1 2 3 2 1 1 1 1 1 1 1 1 1 1 1 1 1 1 3 5 7 8 8 10 11 11 12 12 12 13 13 13 13 13 13 13 13 13 13 12 12 12 12 12 11 11 11 11 11 12 12 12 12
2 2 2 2 2 2 2 1 1 1 1 2 1 1 1 0 0 0 0 0 1 1 1 1 1 1 2 2 2 2 1 1 1 1 2 3 3 2 0 1 0 1 2 1 1 1 1 0 0 0 0 2 4 6 7 8 9 10 11 11 12 12 13 13 13 13 13 13 13 13 13 12 12 12 11 11 11 11 11 11 11 11 11 11 11 11
2 2 2 2 2 2 2 2 3 3 3 3 3 2 2 1 1 0 0 0 0 0 0 0 0 1 1 2 2 2 1 1 1 1 2 3 3 2 0 1 1 0 1 2 2 2 1 1 1 1 1 3 5 6 7 8 9 10 10 11 11 12 12 13 13 13 13 13 13 13 13 12 12 11 11 11 11 10 10 10 10 10 10 10 10 11
2 2 3 3 2 2 2 3 3 3 3 3 3 2 3 3 2 2 1 1 0 0 0 0 1 1 1 2 3 3 1 1 1 1 2 3 3 2 1 1 1 1 1 2 2 2 1 1 1 2 2 3 5 6 7 8 9 9 10 11 11 12 12 13 13 13 13 13 13 13 12 12 12 11 11 11 10 10 10 10 10 9 9 9 10 10
2 2 3 3 3 2 3 3 3 3 3 2 2 2 2 2 3 3 2 1 1 0 0 0 1 1 2 2 3 2 1 1 2 1 2 2 3 3 1 1 1 1 2 2 2 2 1 1 1 2 3 4 5 6 7 8 9 9 10 11 11 12 12 13 13 13 13 13 13 13 12 12 12 11 11 10 10 10 10 9 9 9 9 9 9 9
2 2 2 2 2 2 2 2 2 3 3 2 2 2 2 2 2 2 2 1 1 1 1 0 1 2 2 2 3 3 1 2 2 1 1 2 2 2 1 0 1 0 2 2 2 2 1 1 1 2 3 5 6 7 7 7 8 9 10 11 12 12 12 13 13 13 13 13 13 13 13 12 12 11 11 10 10 10 10 9 9 9 8 8 8 8
2 2 2 2 2 2 2 2 2 3 3 2 2 1 1 1 1 2 2 1 1 1 1 2 2 3 3 3 4 3 1 2 2 1 0 1 2 3 2 1 1 0 1 2 2 2 1 1 2 3 5 7 7 7 7 7 8 9 10 11 11 12 12 13 13 13 13 13 13 13 13 12 12 11 11 11 10 10 10 9 9 9 8 8 8 8
3 3 3 3 3 2 2 2 3 3 3 2 1 0 1 1 1 2 2 1 1 2 3 3 3 3 3 3 3 2 0 2 3 3 1 1 2 3 2 1 1 1 2 2 2 2 2 2 3 4 6 7 7 6 6 6 7 8 9 10 11 12 12 12 13 13 13 13 13 13 13 13 12 12 11 11 10 10 10 9 9 9 9 8 8 8
3 3 3 3 3 2 2 2 3 3 3 2 2 1 1 2 2 3 3 2 2 2 2 2 2 3 3 3 2 1 1 1 2 3 2 0 2 3 2 1 1 2 2 2 2 2 3 3 3 4 4 6 6 5 4 4 6 7 9 10 11 11 12 12 13 13 13 13 13 13 13 13 12 12 11 11 11 10 10 10 10 9 9 8 8 8
2 2 2 2 3 3 3 3 4 4 3 3 2 2 2 3 3 2 1 1 0 1 1 2 2 3 3 2 2 2 2 1 2 2 2 0 2 3 2 1 1 2 3 3 2 2 3 4 4 4 3 3 3 3 3 3 5 7 8 10 11 11 12 12 13 13 13 13 13 13 13 13 13 12 12 11 11 11 11 10 10 10 9 9 8 8
2 2 2 3 4 5 6 6 6 6 6 4 3 3 3 3 3 2 2 3 3 2 2 2 2 2 2 2 2 2 2 1 1 2 2 0 1 3 3 1 1 1 3 3 3 2 3 4 4 3 2 2 2 2 2 3 5 7 8 9 10 11 12 12 13 13 13 14 14 14 13 13 13 12 12 12 12 11 11 11 10 10 9 9 8 8
2 3 3 4 5 6 6 7 7 8 8 8 7 6 5 4 3 3 4 4 3 3 2 2 2 2 2 2 2 2 2 1 1 1 2 1 0 2 3 2 1 2 3 3 3 3 4 4 4 3 2 2 1 1 2 3 5 7 9 9 10 11 12 12 13 14 14 14 14 14 14 13 13 13 12 12 12 12 12 11 11 10 9 8 7 7
3 3 3 4 5 5 6 6 7 7 8 9 10 10 7 4 4 4 3 3 3 3 2 2 1 2 2 2 2 2 1 1 1 1 1 1 0 2 3 2 2 2 3 4 3 3 4 4 3 2 2 2 1 1 2 4 5 7 8 8 9 10 11 12 13 14 14 14 14 14 14 13 13 13 13 12 12 12 12 11 11 10 9 7 5 5
4 4 4 4 5 5 6 6 6 7 8 9 10 9 7 4 4 3 2 3 3 3 3 2 2 2 2 2 2 2 2 2 2 2 1 2 1 2 2 2 2 2 3 3 3 3 2 2 2 2 2 2 1 1 2 4 4 5 5 6 6 8 9 11 12 13 14 14 14 14 13 13 13 13 13 12 12 12 12 12 10 9 6 5 4 4
4 4 4 4 4 4 4 4 5 6 7 8 9 8 6 4 3 2 2 3 3 3 3 3 2 2 2 2 2 2 2 2 3 2 3 2 2 2 2 2 2 2 2 3 3 3 3 2 2 2 2 2 2 2 2 3 3 2 2 2 3 5 7 9 11 12 13 13 13 13 13 13 13 13 13 12 12 12 12 12 10 7 4 3 3 4
2 2 2 3 2 2 2 2 3 4 5 6 7 6 5 3 3 2 2 3 3 3 2 3 3 3 2 2 2 2 2 2 3 3 3 2 1 2 2 2 2 2 1 1 2 3 3 3 2 2 2 2 2 2 3 2 2 2 1 1 1 3 5 8 9 10 11 11 12 13 13 13 13 13 13 12 12 12 11 11 9 7 3 3 3 3
1 1 1 2 1 1 1 1 2 2 3 3 4 4 4 3 2 2 2 2 2 2 2 2 2 2 2 1 1 2 2 2 2 3 3 2 1 2 1 2 2 2 1 0 0 1 2 3 3 2 2 2 2 2 3 3 2 1 1 0 1 2 5 6 7 7 8 9 10 11 12 13 13 13 13 13 12 12 11 11 10 7 4 3 3 3
1 1 1 1 1 1 1 1 1 1 1 2 2 2 3 3 2 2 1 1 1 1 1 1 1 1 2 1 2 2 2 2 2 4 5 3 1 2 2 2 2 2 2 1 1 2 2 3 3 3 3 2 2 2 3 3 2 1 1 1 1 2 4 4 5 5 5 6 7 8 10 11 12 13 13 13 12 12 11 11 10 9 6 3 3 3
1 2 2 2 2 2 2 2 1 1 1 1 1 1 2 2 2 2 1 1 1 1 1 1 0 0 1 1 2 2 3 2 2 4 5 3 2 2 2 2 2 2 3 2 1 1 2 3 3 3 4 3 2 2 2 2 2 1 1 1 1 2 3 3 3 3 4 3 3 4 5 7 9 10 11 12 11 11 11 11 11 11 10 6 4 3
2 2 2 1 1 1 1 2 1 1 1 1 1 1 1 1 1 1 1 1 0 0 1 1 1 1 1 2 2 3 3 3 3 4 4 3 2 2 2 2 2 2 3 3 2 2 2 3 3 4 5 4 3 2 2 2 2 2 2 2 2 2 3 3 3 3 3 2 2 3 3 4 5 6 8 9 10 11 12 12 12 12 12 10 8 5
2 2 2 1 0 0 0 0 1 1 1 1 1 1 1 1 1 1 1 1 1 1 1 1 2 2 2 2 3 3 4 4 4 4 4 2 2 2 2 2 2 2 3 3 3 3 3 3 4 4 5 5 4 3 2 2 2 2 2 3 3 3 4 4 4 3 2 2 2 3 3 3 4 4 5 8 11 12 13 13 13 13 13 12 11 8
2 2 2 1 1 0 0 0 0 0 1 1 1 1 1 1 1 2 2 1 1 2 2 3 3 3 4 3 3 4 4 4 4 4 4 3 2 2 2 2 2 3 3 3 3 3 3 4 4 4 4 4 4 3 3 3 3 3 3 3 3 4 4 5 4 3 2 3 3 3 3 3 3 4 5 8 10 11 12 13 13 13 13 12 12 11
2 2 2 1 1 0 0 0 0 1 1 1 2 2 2 2 2 2 2 2 2 2 3 3 3 4 6 6 5 5 5 5 5 6 5 4 3 2 3 3 3 3 3 3 3 4 4 4 4 4 4 4 4 4 4 4 4 4 3 3 3 4 4 4 3 3 3 3 4 4 4 4 3 3 4 5 6 6 7 7 8 9 10 10 10 10
2 2 2 1 1 1 0 1 1 1 2 2 2 2 2 2 2 2 2 2 3 3 4 4 4 4 5 6 7 7 7 7 7 6 6 4 3 3 3 3 3 3 3 3 3 4 4 4 4 4 4 5 5 4 3 3 4 4 4 4 4 3 3 3 3 3 3 4 4 5 4 3 3 3 3 4 4 4 4 4 5 5 5 4 5 7
2 2 2 1 1 1 1 1 1 2 2 2 2 2 2 2 2 3 3 3 3 3 3 4 4 4 4 5 6 6 7 6 6 6 5 4 3 3 3 4 4 4 4 3 3 4 4 5 5 6 6 5 5 5 4 4 4 5 5 5 4 3 2 3 3 3 3 3 3 3 3 3 3 3 3 4 4 4 4 3 3 3 3 2 2 3
2 2 2 1 2 2 2 1 2 2 1 1 1 1 2 2 2 2 2 2 2 2 2 3 3 3 3 4 4 4 5 6 6 6 5 5 5 4 4 4 4 4 4 4 4 4 4 5 6 6 6 6 7 7 7 5 6 7 7 6 5 5 4 4 4 3 3 3 3 3 3 4 4 4 4 4 4 4 3 3 3 4 3 2 2 2
2 1 1 1 2 2 2 1 1 1 1 1 1 1 2 2 2 2 2 2 2 2 2 2 3 4 4 4 4 4 5 6 6 7 7 6 6 5 5 4 4 4 4 4 5 5 5 5 6 6 6 5 6 7 7 6 6 6 6 5 6 6 6 5 3 2 2 3 4 4 5 5 4 4 4 4 4 4 3 3 4 5 5 3 3 3
2 1 1 1 1 1 1 1 1 1 2 2 2 2 3 2 2 2 3 3 3 3 3 3 4 4 5 5 4 4 4 5 5 6 6 6 6 6 5 5 5 4 4 4 4 5 4 5 6 6 5 5 6 7 8 7 7 6 5 5 6 5 4 3 2 2 3 4 4 4 4 4 4 4 4 3 3 3 3 4 6 7 7 5 4 4
2 1 1 1 1 1 1 1 1 2 2 2 2 2 2 2 2 3 3 3 3 3 3 3 3 4 5 5 5 4 4 4 4 5 5 6 6 6 6 6 6 5 4 4 4 4 4 5 5 5 4 5 6 7 7 7 6 6 5 5 5 5 4 4 4 4 4 4 4 4 4 4 4 3 3 2 2 2 2 3 4 5 6 5 5 5
1 1 1 1 1 1 1 1 2 2 2 2 2 2 2 2 3 3 3 3 3 3 2 2 3 3 4 5 4 4 3 3 3 3 4 5 7 8 7 6 6 5 5 5 5 5 4 5 5 4 4 5 6 7 7 7 7 7 7 6 6 6 5 5 5 5 5 4 4 4 4 3 3 2 2 2 2 3 3 3 4 4 5 4 4 4
2 1 1 1 1 1 2 2 1 1 2 2 2 3 3 3 3 3 3 3 3 3 3 3 3 3 4 5 4 4 3 3 3 3 3 4 4 5 5 5 5 5 5 5 5 5 5 5 5 5 5 5 6 7 6 7 7 7 7 6 6 5 5 5 5 5 5 5 4 4 4 2 2 2 2 3 3 3 3 3 4 4 4 4 4 5
2 2 2 1 1 1 2 1 1 1 2 2 2 3 3 3 3 3 3 3 3 3 3 3 3 4 5 5 4 4 4 4 4 4 4 4 4 4 4 4 5 5 5 5 6 6 6 6 6 6 6 6 6 7 7 6 7 7 6 6 5 5 5 5 4 4 4 4 4 3 2 2 2 2 3 3 3 3 3 3 4 4 4 4 5 5
3 3 3 2 2 2 2 2 2 2 2 3 3 3 3 3 4 4 4 3 3 3 3 3 3 4 5 4 4 4 4 5 4 4 4 4 4 4 3 3 4 4 5 6 6 7 7 8 8 7 7 7 7 7 7 7 6 6 5 5 5 5 6 5 5 4 4 4 4 3 2 2 2 3 3 4 4 4 4 4 4 4 4 4 5 5
2 3 3 3 2 2 2 2 2 2 2 3 3 3 3 4 5 5 4 3 3 3 3 3 4 4 4 3 3 3 4 4 4 4 4 4 4 4 3 3 3 3 4 4 5 6 6 8 9 9 9 8 8 8 8 7 7 6 5 5 4 5 5 5 5 4 4 4 3 3 2 2 2 2 3 5 6 7 6 5 5 4 4 4 5 5
2 2 3 3 3 3 3 3 3 3 3 3 3 3 3 3 3 3 3 3 2 2 3 3 3 4 4 4 4 4 4 4 4 4 4 4 4 4 3 3 3 3 3 3 3 4 4 5 6 8 10 11 10 9 8 8 7 6 5 5 4 4 5 5 5 4 4 4 3 2 2 2 2 2 3 6 7 8 7 6 5 5 4 4 4 5
2 2 2 2 3 3 3 3 3 4 4 4 4 4 4 3 2 2 2 2 2 3 3 3 4 4 5 6 5 5 5 5 5 5 4 4 4 4 4 3 3 3 3 3 3 3 3 3 4 4 7 11 12 11 8 7 6 6 6 5 4 3 4 4 4 4 4 4 3 2 2 3 3 4 4 5 6 7 7 7 6 5 4 4 4 5
Wind_Direction
181 192 186 145 134 136 253 198 148 132 294 301 304 306 306 304 291 274 248 227 221 245 279 276 260 232 169 24 10 3 360 359 1 3 5 8 11 14 16 18 19 20 21 21 22 22 23 23 23 24 25 26 26 27 27 28 28 28 28 28 28 27 27 26 25 24 23 22 21 20 19 18 18 19 19 19 20 20 21 22 25 30 35 39 41 41
198 193 185 143 136 144 236 238 161 143 173 258 277 285 294 300 301 296 287 267 244 236 243 258 255 236 194 159 2 357 355 356 359 2 5 7 10 13 15 18 20 21 22 22 23 23 23 23 23 24 24 25 25 26 27 27 27 27 28 28 28 28 27 26 26 25 24 23 22 21 20 19 18 18 18 18 18 19 20 21 23 26 30 34 37 40
186 199 210 167 152 154 202 234 200 165 171 211 238 252 259 276 284 287 284 275 263 254 245 243 237 220 202 193 325 344 347 351 355 360 3 7 9 12 15 17 20 21 22 23 24 24 24 24 23 23 23 24 25 25 26 26 26 26 27 27 27 27 27 27 26 25 25 24 23 22 21 20 19 18 17 17 17 17 18 20 22 24 27 31 34 37
177 196 205 181 164 167 188 201 199 189 184 211 229 239 238 249 259 260 257 256 262 267 264 248 227 202 196 198 246 306 327 341 350 357 1 4 8 11 14 16 19 21 22 23 24 24 24 24 24 23 23 23 23 23 24 24 24 25 25 25 26 26 26 26 26 25 25 24 24 23 22 21 20 19 18 16 16 16 16 17 19 22 24 28 31 34
236 194 183 163 167 186 204 193 187 190 202 223 233 239 235 234 239 244 248 251 261 272 275 266 237 209 194 197 218 251 292 326 344 354 359 2 4 8 11 14 17 19 21 22 23 24 24 24 24 23 23 22 22 22 22 22 22 22 23 23 24 24 24 24 24 24 24 24 24 23 23 22 20 19 18 17 16 16 15 15 16 18 21 24 28 31
283 163 128 140 159 190 217 195 182 185 216 247 251 247 239 231 229 233 244 249 255 262 271 270 254 229 202 199 210 225 253 304 339 353 357 358 359 1 3 7 11 15 17 19 22 23 23 24 23 23 22 22 21 20 19 19 19 19 20 20 21 21 22 22 22 22 23 23 23 23 22 22 21 20 19 18 17 16 16 15 15 15 18 21 24 28
305 55 89 97 134 197 217 210 191 180 189 248 271 275 266 254 243 238 238 233 231 241 267 280 280 270 236 220 218 224 238 283 339 356 357 355 351 350 350 353 358 3 9 15 19 22 23 24 23 22 22 21 20 19 18 17 17 17 17 18 18 18 19 19 20 20 20 21 21 21 21 21 21 20 19 18 17 17 16 16 15 14 15 18 21 25
303 334 79 76 15 310 287 253 217 186 174 186 252 308 321 322 310 285 268 257 242 226 261 302 311 315 308 277 253 243 242 257 319 354 351 346 338 332 331 332 337 343 353 4 13 20 24 25 24 23 21 20 19 18 16 15 14 14 14 15 15 16 16 16 17 17 18 18 18 19 19 19 20 20 20 19 18 17 17 16 16 15 15 17 19 23
297 303 319 166 170 222 288 282 265 217 169 162 163 173 323 329 329 328 331 327 325 322 155 322 321 316 309 299 294 283 264 223 209 207 213 254 285 298 306 308 314 322 329 344 1 14 23 26 26 24 21 20 18 17 15 13 12 12 12 12 12 13 13 13 14 14 15 15 16 16 17 17 18 18 19 19 18 18 18 17 17 16 16 17 18 21
296 301 304 261 183 177 215 272 280 271 174 147 152 160 160 170 336 344 346 333 327 327 349 148 249 286 298 304 315 325 320 287 256 237 223 229 238 254 284 295 300 304 309 327 347 4 17 26 28 27 23 19 17 15 14 12 10 10 9 9 10 10 10 10 11 11 12 12 13 14 14 15 16 16 17 18 18 18 18 18 18 18 18 18 19 20
303 308 314 314 310 277 198 248 260 277 39 60 53 56 120 140 132 107 355 320 318 320 326 281 211 219 260 292 315 335 347 331 312 294 277 262 260 276 304 310 307 304 305 325 345 1 12 26 30 29 25 20 16 13 11 9 8 7 7 7 7 7 7 7 7 8 8 9 10 11 12 12 13 14 15 16 17 18 18 19 19 19 19 20 20 21
304 308 318 327 328 325 316 298 305 347 38 39 18 354 343 14 128 132 137 270 292 298 300 290 259 221 208 223 291 341 357 344 326 316 310 302 309 324 333 329 324 320 318 338 355 5 14 28 34 33 27 20 14 10 8 6 5 5 5 5 4 4 4 4 4 4 5 5 6 7 9 10 10 12 13 14 16 17 18 19 19 20 20 21 21 22
292 292 287 294 299 300 301 307 327 350 21 48 55 288 296 289 149 129 140 206 244 257 264 287 291 285 259 164 70 30 7 342 323 315 316 314 319 333 354 341 331 328 331 351 358 5 15 33 38 36 30 21 13 8 5 3 2 2 2 2 2 2 1 1 1 1 1 2 3 4 5 6 7 9 10 12 14 15 17 18 19 20 21 21 22 22
301 297 290 290 288 281 270 259 253 249 245 201 195 201 217 233 112 93 96 255 260 259 261 301 303 309 343 2 22 39 33 354 334 325 321 308 297 286 2 331 317 315 333 356 347 345 3 42 46 41 31 20 11 5 2 360 359 359 359 359 359 359 358 358 358 358 358 358 359 0 1 3 4 6 7 9 11 13 15 16 18 19 20 21 21 22
327 325 326 324 313 298 281 263 242 228 225 215 208 199 187 27 42 53 57 319 301 307 353 338 326 325 351 349 355 17 44 24 0 337 322 305 289 265 172 328 312 312 337 350 322 314 340 53 66 54 33 15 5 0 357 355 355 355 356 356 356 356 355 355 355 355 354 355 355 356 357 359 0 2 4 5 7 9 11 13 15 17 18 19 20 21
338 339 339 335 323 311 301 298 293 286 281 278 303 54 52 28 24 33 59 310 310 332 11 359 346 336 335 326 334 359 42 38 18 335 317 302 292 275 144 90 347 321 323 319 296 291 318 35 80 77 45 2 356 354 353 350 350 351 352 352 352 352 352 351 351 351 351 351 352 352 353 355 356 358 359 1 3 5 7 10 12 14 15 16 17 18
334 336 335 331 324 322 323 344 350 349 343 347 2 25 59 56 42 78 107 308 337 357 19 36 10 333 312 315 319 333 24 43 19 324 312 298 290 283 147 113 86 309 306 296 281 274 288 316 85 97 52 344 346 347 347 346 346 347 348 348 348 348 347 347 347 348 348 348 348 348 349 350 351 353 355 356 358 0 2 5 7 9 11 12 13 14
332 332 332 328 326 330 355 14 10 1 0 358 356 356 4 1 7 30 64 61 33 15 1 72 150 230 280 292 293 294 325 59 27 328 316 298 289 286 313 102 107 289 297 291 281 270 256 230 204 198 224 323 332 336 338 339 341 342 343 343 343 343 343 343 343 343 343 344 344 345 345 346 347 348 350 352 353 355 357 359 2 4 6 7 8 9
333 339 347 342 339 349 30 30 21 10 5 357 352 353 357 355 359 8 14 20 28 91 164 234 236 235 239 253 263 268 265 99 59 345 315 297 289 290 327 56 63 11 304 290 278 267 256 247 236 237 256 305 317 323 328 332 335 337 338 339 339 339 339 338 338 338 339 339 340 340 341 341 342 343 345 346 348 350 352 353 356 358 0 1 2 3
333 351 5 352 349 2 33 29 18 5 358 355 5 17 10 358 359 4 2 358 352 354 116 202 260 260 253 262 268 272 270 74 59 15 303 288 284 288 314 47 55 1 306 287 274 263 255 259 267 274 282 293 303 311 318 326 330 333 334 335 335 335 334 334 334 334 334 335 335 336 336 336 337 339 340 342 343 345 346 348 349 351 353 355 356 356
344 6 9 356 3 18 30 12 355 349 354 12 32 42 24 3 356 349 335 340 345 352 13 313 264 255 255 270 273 273 261 78 64 24 307 294 291 291 302 42 71 15 299 283 277 273 278 279 275 271 271 285 294 303 312 321 327 330 331 332 332 332 331 331 331 331 331 331 331 331 332 332 333 334 336 337 339 340 341 342 343 345 346 348 348 349
6 13 1 1 14 26 21 351 341 347 0 25 42 44 15 357 330 311 296 305 313 302 273 251 246 246 250 261 265 260 186 113 110 110 355 317 301 294 297 346 49 15 289 281 282 290 304 298 288 280 279 287 293 301 310 318 324 327 328 328 328 328 329 329 329 329 329 329 328 329 328 328 329 330 332 333 335 336 337 338 338 339 339 340 340 340
11 9 357 2 10 17 14 359 350 352 2 18 28 78 205 204 221 235 240 228 223 228 235 242 250 257 261 262 265 268 154 120 120 118 98 312 289 288 297 341 6 337 283 280 288 303 315 304 292 285 285 289 293 298 307 315 320 323 324 325 325 326 326 327 327 328 328 327 327 327 326 326 326 327 328 330 331 333 333 333 334 334 334 334 333 331
6 1 357 1 6 10 12 6 1 357 357 357 345 302 250 225 219 218 215 209 210 221 242 276 303 308 297 292 302 325 339 78 101 103 99 245 273 280 297 332 337 314 286 277 287 303 313 300 289 283 283 284 284 287 295 306 313 316 318 320 321 323 324 325 326 327 327 327 326 326 325 324 324 325 326 327 329 330 330 330 330 330 330 329 327 325
5 359 357 0 7 14 19 18 14 9 2 353 340 325 313 292 275 261 249 260 303 349 9 11 354 331 310 319 336 343 328 7 72 95 97 260 280 286 295 312 315 301 289 285 291 302 305 295 289 285 283 276 270 267 274 290 301 307 311 315 318 320 322 323 325 325 326 325 325 324 324 323 323 323 324 325 326 327 327 327 328 328 328 327 325 322
10 6 5 9 13 16 19 19 17 13 10 7 0 350 340 332 334 348 9 6 5 7 20 21 354 317 303 320 329 326 315 352 51 87 105 110 291 294 294 300 313 307 299 294 296 299 297 290 287 284 282 266 253 248 260 282 295 302 307 311 315 318 320 322 323 324 324 324 323 322 322 321 321 321 322 323 324 324 325 325 326 326 327 326 324 321
3 8 12 13 14 14 15 14 13 13 13 15 18 18 13 9 14 19 14 0 358 4 23 15 337 312 312 322 313 302 305 349 24 62 106 107 294 291 289 298 320 326 312 300 292 285 281 280 280 280 281 266 251 251 276 289 296 300 304 309 313 317 320 322 322 322 322 321 321 320 320 319 319 320 321 321 322 322 322 322 324 326 327 328 325 320
344 350 359 7 12 14 16 14 13 13 17 22 26 28 29 33 34 28 5 348 352 5 22 4 331 312 311 305 295 295 322 358 358 358 81 85 22 279 280 301 325 336 322 305 293 282 274 272 274 279 278 271 270 283 295 293 294 298 302 308 314 318 321 321 321 321 320 320 319 318 318 317 318 318 319 320 320 320 320 321 322 324 327 327 324 316
342 343 348 1 13 21 24 18 14 15 22 29 33 35 37 44 47 35 359 350 359 10 11 355 336 317 304 295 295 308 351 352 336 334 35 45 346 282 284 313 333 340 333 315 308 303 291 281 277 278 274 280 294 306 295 290 289 290 295 307 314 318 320 320 320 320 319 319 318 317 316 316 316 317 317 317 318 318 318 319 320 322 327 326 321 314
344 345 345 353 7 20 27 20 15 18 27 34 37 38 40 49 54 46 15 14 20 21 10 355 346 336 323 320 323 329 344 329 323 336 33 30 345 298 305 323 332 338 350 335 326 319 312 304 295 286 284 304 315 310 295 288 283 278 277 301 312 316 317 318 318 318 318 317 317 317 317 316 316 316 315 316 316 316 317 317 319 321 325 323 319 315
330 334 330 331 344 3 18 16 15 21 30 36 37 36 35 44 52 54 41 38 38 33 17 359 350 346 345 345 337 325 313 308 318 342 40 30 341 300 315 323 323 327 3 9 341 321 313 308 301 297 303 322 320 308 297 289 279 266 244 270 294 303 306 310 312 313 313 315 315 316 317 317 316 315 314 314 314 314 315 316 317 319 320 321 318 314
298 304 303 306 316 337 5 8 12 19 29 31 29 25 24 29 40 52 58 58 57 49 34 7 353 347 348 345 318 291 282 287 326 2 43 34 345 305 317 320 316 314 321 98 163 265 293 296 298 302 313 321 314 304 296 288 279 265 243 252 272 285 292 299 303 304 303 308 311 314 316 316 315 314 313 312 312 312 313 313 314 314 313 312 308 305
302 308 308 316 329 345 3 2 9 17 22 23 18 12 9 9 16 31 57 72 79 80 73 33 355 339 331 315 289 275 273 273 347 23 40 37 0 319 313 314 311 308 309 284 204 205 235 268 287 300 307 306 301 294 292 288 282 274 265 284 283 284 289 293 293 291 286 295 302 308 312 313 313 312 312 311 311 311 310 310 310 309 306 300 293 293
328 326 324 333 344 352 355 357 2 9 16 16 10 3 353 347 349 359 15 47 79 105 127 139 170 273 292 289 281 276 274 274 341 20 33 32 2 316 306 302 302 304 309 299 285 263 251 261 281 297 302 301 293 282 280 282 288 296 304 306 299 295 295 297 292 282 274 278 285 296 303 307 308 308 310 309 309 308 308 307 306 305 303 296 288 282
339 330 318 327 342 351 351 351 354 358 1 350 340 334 332 324 323 327 332 335 333 250 189 185 193 204 223 246 262 270 272 278 318 346 3 9 349 314 300 290 295 304 305 297 297 295 284 277 283 292 299 301 297 285 271 275 294 315 322 318 309 302 298 297 293 286 278 275 275 278 285 292 297 301 304 305 305 305 305 305 304 303 301 297 292 283
326 311 299 291 288 316 336 346 356 352 330 301 292 287 294 293 294 295 291 286 283 275 265 252 237 228 221 229 242 256 268 276 298 314 326 332 324 304 291 284 293 302 299 295 293 292 288 287 288 290 293 294 295 293 285 291 315 328 326 320 312 305 298 294 290 286 283 280 277 275 275 281 285 290 294 300 302 303 304 303 303 302 300 298 293 287
279 277 274 260 234 196 208 143 92 297 284 283 285 285 278 274 274 274 268 262 259 262 266 265 263 259 255 249 248 254 267 277 287 293 297 294 287 279 274 278 284 288 285 288 291 291 289 290 292 292 286 281 283 292 302 314 319 320 312 308 302 298 295 294 292 290 285 281 277 273 272 273 278 283 288 297 301 303 303 301 300 299 298 296 294 290
237 242 245 233 212 170 51 333 306 279 264 268 271 270 264 261 258 258 259 256 252 252 256 259 261 263 263 264 263 264 270 276 279 281 279 274 266 262 264 273 276 275 270 275 281 286 288 290 293 295 290 281 280 286 299 308 311 309 302 294 287 282 282 290 295 298 294 286 281 278 275 273 274 280 288 296 301 302 301 298 295 294 294 295 294 292
226 227 226 209 185 152 108 310 286 264 246 249 252 258 260 262 263 262 259 255 252 250 249 251 254 257 258 261 263 265 268 269 270 270 269 263 254 249 254 265 271 272 268 266 270 276 279 281 283 287 291 292 293 293 295 297 301 303 305 300 290 275 269 285 297 300 296 292 289 287 282 278 277 283 288 294 297 297 294 291 288 287 292 297 297 294
222 222 222 197 173 159 169 254 255 245 235 246 261 275 286 288 285 280 273 268 264 260 257 256 258 259 258 259 260 263 264 265 265 265 263 253 241 233 240 254 264 270 272 268 266 267 270 274 277 279 283 288 293 297 298 296 298 302 307 306 301 296 296 299 297 295 292 290 289 288 285 283 282 283 284 285 284 282 279 279 281 284 290 293 297 298
217 215 212 194 176 170 181 212 224 225 224 247 286 305 302 295 289 285 283 283 281 280 285 288 289 287 282 278 274 270 267 266 264 261 256 245 235 228 231 241 252 262 269 267 266 264 264 270 274 277 278 282 286 289 289 290 294 298 300 298 297 298 301 297 292 289 292 294 291 289 289 290 290 288 282 278 272 265 260 264 274 282 287 274 264 267
242 222 204 192 182 176 180 190 204 213 218 230 270 277 273 270 271 274 278 283 287 290 301 309 309 306 302 297 291 284 275 269 263 257 252 242 233 227 228 235 242 251 260 265 264 263 262 265 269 273 276 281 285 286 285 286 288 289 287 289 294 298 297 292 286 286 300 300 298 295 294 293 290 285 278 273 267 262 262 267 277 283 286 277 263 251
256 232 203 193 186 182 177 187 211 231 239 247 253 254 250 249 256 269 279 283 288 294 299 302 302 302 300 297 293 287 279 269 261 255 249 239 230 226 228 232 236 242 250 260 265 266 263 263 264 267 272 275 277 279 282 287 288 285 282 286 293 299 299 299 300 298 292 291 289 286 285 281 277 272 267 261 259 262 272 281 285 286 284 279 271 262
256 240 217 209 204 203 205 215 227 237 244 251 257 262 262 261 271 281 287 288 292 295 300 301 301 298 295 293 290 285 282 280 274 265 253 241 232 226 227 230 233 236 238 249 259 266 269 265 263 264 266 268 269 272 277 282 284 285 283 283 283 283 282 293 300 300 293 286 281 277 272 272 271 270 268 263 263 268 278 283 284 284 282 278 273 268
278 273 263 249 242 240 237 236 238 246 262 278 288 292 294 292 293 294 293 291 289 286 286 292 296 295 292 291 288 286 286 292 294 289 277 258 247 239 232 230 231 233 235 239 246 253 262 266 267 267 265 263 264 267 273 278 280 282 281 282 279 276 273 282 288 290 288 285 281 276 271 272 276 282 286 282 279 278 277 279 281 282 283 282 280 276
297 279 267 261 255 252 250 246 252 266 285 295 299 300 301 303 301 296 289 285 281 277 274 278 282 284 285 288 290 292 294 297 300 300 297 283 267 252 239 234 232 232 235 237 239 242 246 255 263 269 271 268 265 263 264 269 274 277 279 281 281 280 279 280 280 280 282 284 282 280 276 280 288 291 285 284 281 278 274 271 272 277 285 290 290 289
297 289 284 283 275 266 260 262 270 280 286 288 289 292 295 299 298 294 285 277 272 269 269 267 268 270 274 280 285 291 297 301 303 303 301 297 289 276 258 247 238 235 236 239 240 241 242 246 250 256 263 268 269 268 265 264 266 269 273 276 279 279 281 280 279 278 279 281 282 282 285 306 309 297 285 285 284 283 280 275 273 275 281 286 289 289
297 300 304 304 299 293 288 287 286 283 281 279 279 282 288 293 293 290 283 277 272 272 274 268 265 265 267 270 276 285 295 299 301 301 300 298 293 286 273 261 250 243 241 243 245 246 246 245 244 244 249 256 264 269 271 268 265 265 268 271 273 276 278 279 280 280 278 276 275 275 280 292 293 292 293 294 293 291 289 284 280 276 274 275 276 278
301 309 315 316 314 311 308 308 301 293 286 284 284 285 288 286 285 283 277 275 275 278 279 275 274 273 274 278 283 289 294 295 294 294 294 293 292 289 284 275 265 258 254 251 251 251 251 248 242 238 236 241 250 260 268 268 267 266 266 266 267 270 274 276 277 277 275 273 271 268 263 262 264 276 295 298 297 295 294 290 284 277 271 266 265 265
311 314 319 320 317 313 310 308 304 299 295 294 293 290 287 279 271 267 268 276 285 291 293 292 292 293 296 297 298 298 296 293 291 289 288 287 286 286 286 282 277 273 272 267 263 261 261 256 245 236 230 230 235 244 258 264 267 268 266 263 261 263 268 272 274 275 274 274 273 269 264 265 271 283 296 295 294 293 292 289 285 280 275 268 263 262
312 311 312 310 306 303 299 297 296 294 293 292 289 286 282 277 276 280 292 309 315 314 310 307 305 303 301 300 298 295 292 289 287 284 282 280 280 280 280 278 277 278 281 282 282 281 280 279 270 252 234 228 227 229 242 253 261 267 267 262 258 257 262 267 270 273 276 278 279 279 281 288 291 292 292 290 289 289 288 287 286 284 281 276 271 268